Regional Weather Roundup
Issued by NWS

Home | Current Version | Previous Version | Graphics & Text | Print | Product List | Glossary On
Versions: 1 2 3 4 5 6 7 8 9 10 11 12 13 14 15 16 17 18 19 20 21 22 23 24 25 26 27 28 29 30 31 32 33 34 35 36 37 38 39 40 41 42 43 44 45 46 47 48 49 50
000
ASUS43 KBIS 011010
RWRND

NORTH DAKOTA REGIONAL WEATHER ROUNDUP
NATIONAL WEATHER SERVICE BISMARCK ND
500 AM CDT SUN MAY 01 2016

NOTE: "FAIR" INDICATES FEW OR NO CLOUDS BELOW 12,000 FEET WITH NO
SIGNIFICANT WEATHER AND/OR OBSTRUCTIONS TO VISIBILITY.


NDZ001>003-009>011-017-011100-
NORTHWEST NORTH DAKOTA

CITY           SKY/WX    TMP DP  RH WIND       PRES   REMARKS
WILLISTON      CLEAR     33  28  81 N5        30.33S
MINOT          CLEAR     35  25  66 W7        30.32R
MINOT AFB      CLEAR     32  26  80 NW8       30.32R
$$

NDZ018>021-031>035-040>046-011100-
SOUTHWEST NORTH DAKOTA

CITY           SKY/WX    TMP DP  RH WIND       PRES   REMARKS
BISMARCK       CLEAR     35  30  82 W5        30.31R
DICKINSON      CLEAR     30  25  81 NW6       30.30R
GARRISON         N/A     33  27  78 N6        30.31S
HETTINGER ARPT CLEAR     26  22  84 W5        30.31R
$$

NDZ004>008-012>016-024-026-027-054-011100-
NORTHEAST NORTH DAKOTA

CITY           SKY/WX    TMP DP  RH WIND       PRES   REMARKS
GRAND FORKS    CLEAR     31  25  78 NW5       30.29R
GRND FRKS AFB  CLEAR     32  25  75 N8        30.29R
DEVILS LAKE    CLEAR     35  28  75 N5        30.31R
$$

NDZ022-023-025-028>030-036>039-047>053-011100-
SOUTHEAST NORTH DAKOTA

CITY           SKY/WX    TMP DP  RH WIND       PRES   REMARKS
FARGO          CLEAR     33  26  75 CALM      30.27R
JAMESTOWN      CLEAR     33  27  78 N6        30.26R
$$




USA.gov is the U.S. government's official web portal to all federal, state and local government web resources and services.